HUF56S KCHS-LHKE

Flight info

Callsign HUF56S
Flight time N/A
Altitude 30000
Route PLMTO3 CRE DCT ECG DCT DUMPR DCT KANNI N317A ELSIR/M074F300 DCT 50N050W 51N040W 52N030W 53N020W DCT MALOT DCT GISTI/N0432F300 DCT UNBEG DCT SHA DCT VATRY DCT FACTU P155 SIVDA P137 REDFA L620 TACHA DCT GMH DCT MASEK L604 SULUS Z650 VEMUT DCT PEPIK DCT ERGOM
Aircraft C17/H-SDE1E2FGHIJ5RTUWXY/LB1D1

Departure

Time 2026-05-06 11:10
Airport Charleston International Airport (KCHS)

Arrival

Time N/A
Airport Kecskemét Air Base (LHKE)
Time Latitude Longitude Altitude Speed Heading
2026-05-06 11:06 32.89726 -80.03104 49 ft 0 kts 142°
2026-05-06 11:07 32.89725 -80.03103 51 ft 1 kts 148°
2026-05-06 11:08 32.89709 -80.03105 46 ft 7 kts 195°
2026-05-06 11:08 32.89583 -80.03144 49 ft 30 kts 194°
2026-05-06 11:08 32.89345 -80.03177 48 ft 34 kts 186°
2026-05-06 11:08 32.89269 -80.03268 50 ft 7 kts 309°
2026-05-06 11:09 32.89491 -80.03442 46 ft 74 kts 328°
2026-05-06 11:09 32.90118 -80.03922 50 ft 138 kts 328°
2026-05-06 11:09 32.91075 -80.04641 205 ft 183 kts 328°
2026-05-06 11:09 32.92394 -80.05403 208 ft 235 kts 350°
2026-05-06 11:10 32.94010 -80.05032 828 ft 247 kts 32°
2026-05-06 11:10 32.95133 -80.03491 1505 ft 254 kts 70°
2026-05-06 11:10 32.95451 -80.01409 2296 ft 260 kts 86°
2026-05-06 11:10 32.95647 -79.99221 3216 ft 270 kts 84°
2026-05-06 11:11 32.95876 -79.96972 4212 ft 276 kts 82°
2026-05-06 11:11 32.96162 -79.94693 5239 ft 280 kts 82°
2026-05-06 11:11 32.96489 -79.92383 6219 ft 286 kts 82°
2026-05-06 11:11 32.96913 -79.90047 7150 ft 291 kts 77°
2026-05-06 11:12 32.97484 -79.87713 8057 ft 296 kts 76°
2026-05-06 11:12 32.98071 -79.85348 8935 ft 302 kts 76°
2026-05-06 11:12 32.98652 -79.82890 9612 ft 314 kts 77°
2026-05-06 11:12 32.99248 -79.80343 10276 ft 325 kts 76°
2026-05-06 11:13 32.99868 -79.77714 10959 ft 334 kts 76°
2026-05-06 11:13 33.00629 -79.75067 11692 ft 341 kts 69°
2026-05-06 11:13 33.01602 -79.72464 12454 ft 346 kts 65°
2026-05-06 11:13 33.02665 -79.69867 13210 ft 352 kts 64°
2026-05-06 11:14 33.03839 -79.67287 13935 ft 357 kts 58°
2026-05-06 11:14 33.05218 -79.64801 14596 ft 361 kts 56°
2026-05-06 11:14 33.06586 -79.62317 15245 ft 366 kts 56°
2026-05-06 11:14 33.07972 -79.59751 15880 ft 370 kts 56°
2026-05-06 11:15 33.09377 -79.57153 16508 ft 375 kts 56°
2026-05-06 11:15 33.10799 -79.54533 17139 ft 379 kts 56°
2026-05-06 11:15 33.12237 -79.51876 17753 ft 383 kts 56°
2026-05-06 11:15 33.13690 -79.49191 18369 ft 387 kts 56°
2026-05-06 11:16 33.15158 -79.46475 18883 ft 391 kts 55°
2026-05-06 11:16 33.16638 -79.43737 19419 ft 394 kts 55°
2026-05-06 11:16 33.18147 -79.40989 19937 ft 397 kts 52°
2026-05-06 11:16 33.19883 -79.38414 20449 ft 399 kts 46°
2026-05-06 11:17 33.21737 -79.35941 20950 ft 401 kts 45°
2026-05-06 11:17 33.23699 -79.33558 21435 ft 403 kts 39°
2026-05-06 11:17 33.25825 -79.31372 21924 ft 405 kts 38°
2026-05-06 11:17 33.27957 -79.29141 22391 ft 409 kts 38°
2026-05-06 11:18 33.30094 -79.26886 22865 ft 412 kts 38°
2026-05-06 11:18 33.32249 -79.24615 23308 ft 414 kts 38°
2026-05-06 11:18 33.34425 -79.22326 23726 ft 417 kts 38°
2026-05-06 11:18 33.36606 -79.20025 24103 ft 419 kts 38°
2026-05-06 11:19 33.38796 -79.17713 24491 ft 421 kts 38°
2026-05-06 11:19 33.40996 -79.15392 24866 ft 422 kts 38°
2026-05-06 11:19 33.43201 -79.13063 25226 ft 424 kts 38°
2026-05-06 11:19 33.45415 -79.10722 25580 ft 425 kts 38°
2026-05-06 11:20 33.47639 -79.08366 25910 ft 427 kts 38°
2026-05-06 11:20 33.49870 -79.06006 26248 ft 428 kts 38°
2026-05-06 11:20 33.52107 -79.03635 26578 ft 430 kts 38°
2026-05-06 11:20 33.54320 -79.01287 26866 ft 431 kts 38°
2026-05-06 11:21 33.56570 -78.98899 27157 ft 433 kts 38°
2026-05-06 11:21 33.58831 -78.96499 27457 ft 434 kts 37°
2026-05-06 11:21 33.61097 -78.94091 27741 ft 436 kts 37°
2026-05-06 11:21 33.63376 -78.91667 28023 ft 437 kts 37°
2026-05-06 11:22 33.65657 -78.89240 28257 ft 438 kts 37°
2026-05-06 11:22 33.67170 -78.87628 28451 ft 439 kts 37°
2026-05-06 11:22 33.69461 -78.85188 28682 ft 441 kts 37°
2026-05-06 11:22 33.71758 -78.82738 28914 ft 442 kts 37°
2026-05-06 11:23 33.74060 -78.80279 29117 ft 444 kts 37°
2026-05-06 11:23 33.77123 -78.77009 29409 ft 445 kts 37°
2026-05-06 11:23 33.78688 -78.75327 29542 ft 447 kts 38°
2026-05-06 11:23 33.80979 -78.72796 29745 ft 447 kts 36°
2026-05-06 11:24 33.83353 -78.70455 29924 ft 446 kts 34°
2026-05-06 11:24 33.88104 -78.65707 30048 ft 442 kts 35°
2026-05-06 11:25 33.92855 -78.60939 30059 ft 446 kts 35°
2026-05-06 11:25 33.97669 -78.56096 30070 ft 456 kts 35°
2026-05-06 11:26 34.02589 -78.51137 30061 ft 466 kts 35°
2026-05-06 11:26 34.07590 -78.46089 30072 ft 476 kts 36°
2026-05-06 11:27 34.12721 -78.40900 30065 ft 485 kts 36°
2026-05-06 11:27 34.17941 -78.35615 30069 ft 494 kts 36°
2026-05-06 11:28 34.23254 -78.30226 30061 ft 503 kts 36°
2026-05-06 11:28 34.28635 -78.24756 30069 ft 503 kts 36°
2026-05-06 11:29 34.33939 -78.19358 30060 ft 494 kts 36°
2026-05-06 11:29 34.39193 -78.14003 30071 ft 494 kts 36°
2026-05-06 11:30 34.44467 -78.08615 30061 ft 498 kts 36°
2026-05-06 11:30 34.49783 -78.03175 30067 ft 500 kts 36°
2026-05-06 11:31 34.55060 -77.97767 30068 ft 500 kts 36°
2026-05-06 11:31 34.60360 -77.92326 30071 ft 498 kts 36°
2026-05-06 11:32 34.65609 -77.86924 30060 ft 485 kts 36°
2026-05-06 11:32 34.70665 -77.81720 30063 ft 471 kts 36°
2026-05-06 11:33 34.75673 -77.76553 30077 ft 475 kts 36°
2026-05-06 11:33 34.80739 -77.71315 30091 ft 481 kts 36°
2026-05-06 11:34 34.85859 -77.66013 30076 ft 484 kts 36°
2026-05-06 11:34 34.90967 -77.60716 30088 ft 479 kts 36°
2026-05-06 11:35 34.95993 -77.55496 30068 ft 476 kts 36°
2026-05-06 11:35 35.01042 -77.50242 30072 ft 478 kts 36°
2026-05-06 11:36 35.06124 -77.44943 30068 ft 481 kts 36°
2026-05-06 11:36 35.11204 -77.39640 30084 ft 480 kts 36°
2026-05-06 11:37 35.16262 -77.34349 30081 ft 478 kts 36°
2026-05-06 11:37 35.21309 -77.29063 30082 ft 478 kts 36°
2026-05-06 11:38 35.26372 -77.23749 30073 ft 480 kts 36°
2026-05-06 11:38 35.31439 -77.18422 30074 ft 480 kts 36°
2026-05-06 11:39 35.36463 -77.13132 30067 ft 478 kts 36°
2026-05-06 11:39 35.41509 -77.07809 30077 ft 479 kts 36°
2026-05-06 11:40 35.46570 -77.02462 30076 ft 481 kts 36°
2026-05-06 11:40 35.51634 -76.97102 30081 ft 480 kts 36°
2026-05-06 11:40 35.54160 -76.94424 29857 ft 480 kts 36°
2026-05-06 11:41 35.56672 -76.91749 29995 ft 477 kts 34°
2026-05-06 11:41 35.61711 -76.86412 30059 ft 480 kts 34°
2026-05-06 11:42 35.66780 -76.81014 30073 ft 484 kts 34°
2026-05-06 11:42 35.71857 -76.75602 30069 ft 482 kts 34°
2026-05-06 11:43 35.76913 -76.70204 30066 ft 479 kts 34°
2026-05-06 11:43 35.81944 -76.64824 30070 ft 480 kts 34°
2026-05-06 11:44 35.89537 -76.56683 30083 ft 484 kts 34°
2026-05-06 11:44 35.94616 -76.51227 30085 ft 483 kts 34°
2026-05-06 11:45 35.99677 -76.45782 30082 ft 482 kts 34°
2026-05-06 11:45 36.04737 -76.40326 30079 ft 484 kts 34°
2026-05-06 11:46 36.09825 -76.34831 30076 ft 488 kts 35°
2026-05-06 11:46 36.14963 -76.29272 30067 ft 493 kts 35°
2026-05-06 11:47 36.20148 -76.23651 30067 ft 498 kts 35°
2026-05-06 11:47 36.25410 -76.18007 30069 ft 503 kts 36°
2026-05-06 11:48 36.30576 -76.12155 30065 ft 507 kts 36°
2026-05-06 11:48 36.35780 -76.06304 30077 ft 502 kts 36°
2026-05-06 11:49 36.40937 -76.00496 30076 ft 499 kts 36°
2026-05-06 11:49 36.46095 -75.94676 30071 ft 502 kts 36°
2026-05-06 11:50 36.51280 -75.88813 30069 ft 504 kts 37°
2026-05-06 11:50 36.56463 -75.82943 30065 ft 503 kts 37°
2026-05-06 11:51 36.61631 -75.77078 30064 ft 502 kts 37°
2026-05-06 11:51 36.66790 -75.71214 30052 ft 503 kts 37°
2026-05-06 11:52 36.71927 -75.65362 30046 ft 504 kts 37°
2026-05-06 11:52 36.77100 -75.59458 30050 ft 503 kts 37°
2026-05-06 11:53 36.82259 -75.53559 30052 ft 502 kts 37°
2026-05-06 11:53 36.87409 -75.47659 30049 ft 503 kts 37°
2026-05-06 11:54 36.92569 -75.41737 30045 ft 504 kts 37°
2026-05-06 11:54 36.97725 -75.35807 30052 ft 503 kts 37°
2026-05-06 11:55 37.02872 -75.29878 30048 ft 503 kts 37°
2026-05-06 11:55 37.08016 -75.23939 30050 ft 503 kts 37°
2026-05-06 11:56 37.13161 -75.17986 30051 ft 504 kts 37°
2026-05-06 11:56 37.18310 -75.12019 30048 ft 504 kts 37°
2026-05-06 11:57 37.23416 -75.06091 30051 ft 503 kts 37°
2026-05-06 11:57 37.28549 -75.00119 30053 ft 504 kts 37°
2026-05-06 11:58 37.33694 -74.94123 30050 ft 505 kts 37°
2026-05-06 11:58 37.38843 -74.88107 30051 ft 505 kts 37°
2026-05-06 11:59 37.43982 -74.82093 30051 ft 504 kts 37°
2026-05-06 11:59 37.49113 -74.76076 30049 ft 504 kts 37°
2026-05-06 12:00 37.54250 -74.70040 30048 ft 505 kts 37°
2026-05-06 12:00 37.59358 -74.64027 30047 ft 505 kts 37°
2026-05-06 12:01 37.64489 -74.57975 30050 ft 505 kts 37°
2026-05-06 12:01 37.69612 -74.51920 30053 ft 505 kts 37°
2026-05-06 12:02 37.74746 -74.45840 30053 ft 506 kts 37°
2026-05-06 12:02 37.79886 -74.39742 30051 ft 506 kts 37°
2026-05-06 12:03 37.85014 -74.33644 30052 ft 505 kts 37°
2026-05-06 12:03 37.90137 -74.27539 30052 ft 506 kts 37°
2026-05-06 12:04 37.95267 -74.21416 30051 ft 507 kts 37°
2026-05-06 12:04 38.00359 -74.15325 30045 ft 507 kts 37°
2026-05-06 12:05 38.05481 -74.09185 30049 ft 506 kts 37°
2026-05-06 12:05 38.10599 -74.03040 30051 ft 506 kts 37°
2026-05-06 12:06 38.15722 -73.96873 30049 ft 508 kts 38°
2026-05-06 12:06 38.20851 -73.90689 30052 ft 508 kts 38°
2026-05-06 12:07 38.25940 -73.84540 30047 ft 507 kts 38°
2026-05-06 12:07 38.31057 -73.78342 30036 ft 508 kts 38°
2026-05-06 12:08 38.36184 -73.72123 30041 ft 509 kts 38°
2026-05-06 12:08 38.41315 -73.65884 30053 ft 509 kts 38°
2026-05-06 12:09 38.46435 -73.59646 30048 ft 509 kts 38°
2026-05-06 12:09 38.51551 -73.53401 30047 ft 509 kts 38°
2026-05-06 12:10 38.55805 -73.48197 30044 ft 510 kts 38°
2026-05-06 12:10 38.60933 -73.41912 30044 ft 511 kts 38°
2026-05-06 12:11 38.66053 -73.35625 30048 ft 510 kts 39°
2026-05-06 12:11 38.71166 -73.29334 30051 ft 509 kts 39°
2026-05-06 12:12 38.76275 -73.23032 30045 ft 510 kts 39°
2026-05-06 12:12 38.81385 -73.16717 30044 ft 511 kts 39°
2026-05-06 12:13 38.86499 -73.10383 30046 ft 510 kts 39°
2026-05-06 12:13 38.91571 -73.04089 30047 ft 510 kts 39°
2026-05-06 12:14 38.96678 -72.97739 30045 ft 510 kts 39°
2026-05-06 12:14 39.01783 -72.91376 30049 ft 512 kts 39°
2026-05-06 12:15 39.06891 -72.84996 30043 ft 512 kts 40°
2026-05-06 12:15 39.11993 -72.78611 30042 ft 511 kts 40°
2026-05-06 12:16 39.17081 -72.72231 30043 ft 510 kts 40°
2026-05-06 12:16 39.22134 -72.65878 30043 ft 511 kts 40°
2026-05-06 12:17 39.27235 -72.59454 30040 ft 513 kts 40°
2026-05-06 12:17 39.32334 -72.53018 30043 ft 512 kts 40°
2026-05-06 12:18 39.37424 -72.46578 30040 ft 512 kts 40°
2026-05-06 12:18 39.42503 -72.40139 30040 ft 512 kts 40°
2026-05-06 12:19 39.47593 -72.33673 30042 ft 513 kts 40°
2026-05-06 12:19 39.52686 -72.27187 30042 ft 513 kts 41°
2026-05-06 12:20 39.57769 -72.20702 30044 ft 512 kts 41°
2026-05-06 12:20 39.62840 -72.14218 30041 ft 512 kts 41°
2026-05-06 12:21 39.67879 -72.07760 30040 ft 513 kts 41°
2026-05-06 12:21 39.72960 -72.01217 30045 ft 515 kts 41°
2026-05-06 12:22 39.77669 -71.94184 30043 ft 516 kts 48°
2026-05-06 12:22 39.82203 -71.86945 30040 ft 516 kts 48°
2026-05-06 12:23 39.86725 -71.79686 30040 ft 517 kts 48°
2026-05-06 12:23 39.91266 -71.72382 30043 ft 520 kts 48°
2026-05-06 12:24 39.95791 -71.65090 30042 ft 524 kts 48°
2026-05-06 12:24 40.00416 -71.57619 30041 ft 534 kts 48°
2026-05-06 12:25 40.05123 -71.49997 30041 ft 544 kts 48°
2026-05-06 12:25 40.09911 -71.42224 30046 ft 553 kts 48°
2026-05-06 12:26 40.14718 -71.34401 30041 ft 551 kts 48°
2026-05-06 12:26 40.19503 -71.26594 30045 ft 550 kts 49°
2026-05-06 12:27 40.24290 -71.18765 30044 ft 551 kts 49°
2026-05-06 12:27 40.29081 -71.10910 30047 ft 552 kts 49°
2026-05-06 12:28 40.33865 -71.03044 30051 ft 551 kts 49°
2026-05-06 12:28 40.38596 -70.95249 30051 ft 550 kts 49°
2026-05-06 12:29 40.43363 -70.87373 30051 ft 551 kts 49°
2026-05-06 12:29 40.48132 -70.79473 30051 ft 551 kts 49°
2026-05-06 12:30 40.52890 -70.71572 30047 ft 551 kts 49°
2026-05-06 12:30 40.57639 -70.63666 30051 ft 550 kts 49°
2026-05-06 12:31 40.62374 -70.55762 30057 ft 550 kts 49°
2026-05-06 12:31 40.67079 -70.47890 30051 ft 551 kts 49°
2026-05-06 12:32 40.71811 -70.39951 30051 ft 550 kts 49°
2026-05-06 12:32 40.76529 -70.32015 30035 ft 550 kts 49°
2026-05-06 12:33 40.81248 -70.24058 30064 ft 550 kts 49°
2026-05-06 12:33 40.85954 -70.16100 30047 ft 549 kts 49°
2026-05-06 12:34 40.90651 -70.08139 30052 ft 548 kts 49°
2026-05-06 12:34 40.95347 -70.00161 30059 ft 549 kts 49°
2026-05-06 12:35 41.00030 -69.92180 30056 ft 549 kts 50°
2026-05-06 12:35 41.04709 -69.84186 30050 ft 548 kts 49°
2026-05-06 12:36 41.09345 -69.76248 30053 ft 547 kts 50°
2026-05-06 12:36 41.14001 -69.68252 30054 ft 547 kts 50°
2026-05-06 12:37 41.18647 -69.60252 30054 ft 547 kts 50°
2026-05-06 12:37 41.23291 -69.52238 30058 ft 547 kts 50°
2026-05-06 12:38 41.27927 -69.44215 30059 ft 546 kts 50°
2026-05-06 12:38 41.32556 -69.36181 30060 ft 547 kts 50°
2026-05-06 12:39 41.37183 -69.28132 30062 ft 548 kts 50°
2026-05-06 12:39 41.41807 -69.20063 30068 ft 547 kts 50°
2026-05-06 12:40 41.46380 -69.12067 30060 ft 546 kts 50°
2026-05-06 12:40 41.50981 -69.04000 30064 ft 546 kts 50°
2026-05-06 12:41 41.55579 -68.95913 30066 ft 547 kts 50°
2026-05-06 12:41 41.60164 -68.87832 30065 ft 545 kts 50°
2026-05-06 12:42 41.64739 -68.79745 30067 ft 545 kts 50°
2026-05-06 12:42 41.69301 -68.71659 30067 ft 544 kts 50°
2026-05-06 12:43 41.73850 -68.63576 30071 ft 542 kts 50°
2026-05-06 12:43 41.78375 -68.55513 30067 ft 541 kts 50°
2026-05-06 12:44 41.82890 -68.47445 30074 ft 541 kts 50°
2026-05-06 12:44 41.87378 -68.39408 30075 ft 541 kts 50°
2026-05-06 12:45 41.91884 -68.31317 30076 ft 541 kts 50°
2026-05-06 12:46 41.98628 -68.19164 30077 ft 541 kts 50°
2026-05-06 12:46 42.03112 -68.11054 30085 ft 540 kts 51°
2026-05-06 12:47 42.07596 -68.02925 30078 ft 540 kts 51°
2026-05-06 12:47 42.12072 -67.94790 30081 ft 541 kts 51°
2026-05-06 12:48 42.16538 -67.86647 30080 ft 540 kts 51°
2026-05-06 12:48 42.20991 -67.78510 30084 ft 538 kts 51°
2026-05-06 12:49 42.25407 -67.70417 30082 ft 539 kts 51°
2026-05-06 12:49 42.29853 -67.62245 30087 ft 540 kts 51°
2026-05-06 12:50 42.34288 -67.54075 30082 ft 538 kts 51°
2026-05-06 12:50 42.38709 -67.45908 30082 ft 537 kts 51°
2026-05-06 12:51 42.43122 -67.37731 30093 ft 538 kts 51°
2026-05-06 12:51 42.47537 -67.29530 30085 ft 539 kts 51°
2026-05-06 12:52 42.51951 -67.21308 30093 ft 539 kts 51°
2026-05-06 12:52 42.56356 -67.13078 30087 ft 539 kts 51°
2026-05-06 12:53 42.60761 -67.04829 30093 ft 539 kts 51°
2026-05-06 12:53 42.65234 -66.96755 30091 ft 537 kts 48°
2026-05-06 12:54 42.69911 -66.88799 30084 ft 539 kts 49°
2026-05-06 12:54 42.74598 -66.80809 30098 ft 540 kts 49°
2026-05-06 12:55 42.79274 -66.72806 30085 ft 540 kts 49°
2026-05-06 12:55 42.83946 -66.64790 30081 ft 541 kts 49°
2026-05-06 12:56 42.88622 -66.56744 30096 ft 542 kts 49°
2026-05-06 12:56 42.93300 -66.48671 30090 ft 542 kts 49°
2026-05-06 12:57 42.97943 -66.40639 30089 ft 542 kts 49°
2026-05-06 12:57 43.02647 -66.32480 30091 ft 543 kts 49°
2026-05-06 12:58 43.07288 -66.24404 30091 ft 543 kts 49°
2026-05-06 12:58 43.11953 -66.16266 30093 ft 543 kts 49°
2026-05-06 12:59 43.15829 -66.09488 30092 ft 544 kts 50°
2026-05-06 12:59 43.20491 -66.01315 30089 ft 544 kts 50°
2026-05-06 13:00 43.25147 -65.93127 30092 ft 544 kts 50°
2026-05-06 13:00 43.29800 -65.84923 30097 ft 545 kts 50°
2026-05-06 13:01 43.34454 -65.76697 30099 ft 545 kts 50°
2026-05-06 13:01 43.39099 -65.68459 30104 ft 545 kts 50°
2026-05-06 13:02 43.43737 -65.60214 30108 ft 545 kts 50°
2026-05-06 13:02 43.48349 -65.51993 30105 ft 546 kts 50°
2026-05-06 13:03 43.52987 -65.43699 30107 ft 546 kts 50°
2026-05-06 13:03 43.57623 -65.35385 30119 ft 547 kts 50°
2026-05-06 13:04 43.62246 -65.27075 30122 ft 547 kts 50°
2026-05-06 13:04 43.66882 -65.18713 30121 ft 549 kts 51°
2026-05-06 13:05 43.71521 -65.10323 30125 ft 549 kts 50°
2026-05-06 13:05 43.76159 -65.01911 30126 ft 549 kts 51°
2026-05-06 13:06 43.80780 -64.93507 30129 ft 549 kts 51°
2026-05-06 13:06 43.85407 -64.85065 30133 ft 550 kts 51°
2026-05-06 13:07 43.89996 -64.76669 30131 ft 550 kts 51°
2026-05-06 13:07 43.94613 -64.68201 30128 ft 550 kts 51°
2026-05-06 13:08 43.99228 -64.59709 30124 ft 551 kts 51°
2026-05-06 13:08 44.03845 -64.51185 30121 ft 552 kts 51°
2026-05-06 13:09 44.08457 -64.42651 30118 ft 551 kts 51°
2026-05-06 13:09 44.13053 -64.34120 30116 ft 551 kts 51°
2026-05-06 13:10 44.17642 -64.25574 30108 ft 552 kts 51°
2026-05-06 13:10 44.22234 -64.17003 30105 ft 552 kts 51°
2026-05-06 13:11 44.26819 -64.08415 30108 ft 551 kts 51°
2026-05-06 13:11 44.31360 -63.99883 30112 ft 551 kts 51°
2026-05-06 13:12 44.35936 -63.91264 30118 ft 552 kts 51°
2026-05-06 13:12 44.40507 -63.82628 30113 ft 552 kts 51°
2026-05-06 13:13 44.45060 -63.73996 30116 ft 551 kts 51°
2026-05-06 13:13 44.49613 -63.65344 30118 ft 551 kts 51°
2026-05-06 13:14 44.54157 -63.56680 30124 ft 552 kts 51°
2026-05-06 13:14 44.58690 -63.48009 30135 ft 550 kts 52°
2026-05-06 13:15 44.63205 -63.39353 30126 ft 549 kts 52°
2026-05-06 13:15 44.67710 -63.30684 30128 ft 550 kts 52°
2026-05-06 13:16 44.72183 -63.22053 30135 ft 549 kts 52°
2026-05-06 13:16 44.76668 -63.13372 30135 ft 547 kts 52°
2026-05-06 13:17 44.81139 -63.04692 30139 ft 547 kts 52°
2026-05-06 13:17 44.85597 -62.96013 30148 ft 547 kts 52°
2026-05-06 13:18 44.90049 -62.87317 30144 ft 546 kts 52°
2026-05-06 13:18 44.94480 -62.78636 30147 ft 545 kts 52°
2026-05-06 13:19 44.98883 -62.69986 30148 ft 545 kts 52°
2026-05-06 13:19 45.03307 -62.61266 30150 ft 545 kts 52°
2026-05-06 13:20 45.07724 -62.52535 30147 ft 545 kts 53°
2026-05-06 13:20 45.12133 -62.43791 30145 ft 545 kts 53°
2026-05-06 13:21 45.16534 -62.35038 30135 ft 545 kts 53°
2026-05-06 13:21 45.20929 -62.26268 30135 ft 546 kts 53°
2026-05-06 13:22 45.25323 -62.17472 30131 ft 545 kts 53°
2026-05-06 13:22 45.29703 -62.08684 30120 ft 545 kts 53°
2026-05-06 13:23 45.34055 -61.99918 30123 ft 546 kts 53°
2026-05-06 13:23 45.38430 -61.91080 30108 ft 545 kts 53°
2026-05-06 13:24 45.42794 -61.82240 30103 ft 545 kts 53°
2026-05-06 13:24 45.47145 -61.73396 30101 ft 546 kts 53°
2026-05-06 13:25 45.51496 -61.64525 30101 ft 545 kts 53°
2026-05-06 13:25 45.55829 -61.55664 30110 ft 544 kts 53°
2026-05-06 13:26 45.60151 -61.46797 30118 ft 543 kts 53°
2026-05-06 13:26 45.64431 -61.37988 30120 ft 542 kts 53°
2026-05-06 13:27 45.68729 -61.29115 30116 ft 542 kts 53°
2026-05-06 13:27 45.73015 -61.20238 30124 ft 541 kts 53°
2026-05-06 13:28 45.77290 -61.11357 30114 ft 541 kts 54°
2026-05-06 13:28 45.81553 -61.02473 30110 ft 541 kts 54°
2026-05-06 13:29 45.85808 -60.93577 30117 ft 541 kts 54°
2026-05-06 13:29 45.90060 -60.84664 30110 ft 541 kts 54°
2026-05-06 13:30 45.94301 -60.75739 30113 ft 540 kts 54°
2026-05-06 13:30 45.98508 -60.66860 30113 ft 541 kts 54°
2026-05-06 13:31 46.02735 -60.57912 30106 ft 541 kts 54°
2026-05-06 13:31 46.06963 -60.48932 30099 ft 541 kts 54°
2026-05-06 13:32 46.11186 -60.39934 30094 ft 542 kts 54°
2026-05-06 13:32 46.15399 -60.30925 30092 ft 541 kts 54°
2026-05-06 13:33 46.19575 -60.21971 30093 ft 540 kts 54°
2026-05-06 13:33 46.23766 -60.12956 30094 ft 540 kts 54°
2026-05-06 13:34 46.27947 -60.03932 30094 ft 540 kts 54°
2026-05-06 13:34 46.32118 -59.94902 30092 ft 539 kts 55°
2026-05-06 13:35 46.36277 -59.85868 30087 ft 539 kts 55°
2026-05-06 13:35 46.40430 -59.76816 30080 ft 539 kts 55°
2026-05-06 13:36 46.44544 -59.67820 30088 ft 539 kts 55°
2026-05-06 13:36 46.48681 -59.58747 30082 ft 539 kts 55°
2026-05-06 13:37 46.52816 -59.49649 30090 ft 539 kts 55°
2026-05-06 13:37 46.56951 -59.40519 30095 ft 540 kts 55°
2026-05-06 13:38 46.61072 -59.31389 30099 ft 540 kts 55°
2026-05-06 13:38 46.65190 -59.22241 30106 ft 540 kts 55°
2026-05-06 13:39 46.69273 -59.13135 30104 ft 541 kts 55°
2026-05-06 13:39 46.73387 -59.03934 30108 ft 541 kts 56°
2026-05-06 13:40 46.77492 -58.94719 30112 ft 541 kts 56°
2026-05-06 13:40 46.81586 -58.85500 30116 ft 541 kts 56°
2026-05-06 13:41 46.85678 -58.76253 30118 ft 542 kts 56°
2026-05-06 13:41 46.89742 -58.67043 30118 ft 542 kts 56°
2026-05-06 13:42 46.93825 -58.57754 30122 ft 542 kts 56°
2026-05-06 13:42 46.97898 -58.48454 30127 ft 541 kts 56°
2026-05-06 13:43 47.01956 -58.39164 30128 ft 541 kts 57°
2026-05-06 13:43 47.06007 -58.29858 30136 ft 542 kts 57°
2026-05-06 13:44 47.09366 -58.22116 30136 ft 540 kts 57°
2026-05-06 13:44 47.14049 -58.11284 30139 ft 539 kts 57°
2026-05-06 13:45 47.18059 -58.01978 30142 ft 539 kts 57°
2026-05-06 13:45 47.24055 -57.88000 30143 ft 538 kts 57°
2026-05-06 13:46 47.28036 -57.78680 30153 ft 538 kts 57°
2026-05-06 13:46 47.32012 -57.69341 30158 ft 537 kts 57°
2026-05-06 13:47 47.35975 -57.60000 30163 ft 537 kts 58°
2026-05-06 13:47 47.39264 -57.52223 30164 ft 538 kts 58°
2026-05-06 13:48 47.43223 -57.42834 30170 ft 538 kts 58°
2026-05-06 13:48 47.47167 -57.33448 30172 ft 537 kts 58°
2026-05-06 13:49 47.51098 -57.24058 30173 ft 537 kts 58°
2026-05-06 13:49 47.55034 -57.14628 30172 ft 538 kts 58°
2026-05-06 13:50 47.58964 -57.05174 30169 ft 539 kts 58°
2026-05-06 13:50 47.62864 -56.95765 30161 ft 538 kts 58°
2026-05-06 13:51 47.66777 -56.86288 30147 ft 540 kts 58°
2026-05-06 13:51 47.70694 -56.76770 30136 ft 541 kts 58°
2026-05-06 13:52 47.74605 -56.67234 30131 ft 540 kts 59°
2026-05-06 13:52 47.78507 -56.57683 30115 ft 541 kts 59°
2026-05-06 13:53 47.82422 -56.48067 30099 ft 544 kts 59°
2026-05-06 13:53 47.86315 -56.38475 30085 ft 544 kts 59°
2026-05-06 13:54 47.90216 -56.28821 30076 ft 543 kts 59°
2026-05-06 13:54 47.94104 -56.19172 30074 ft 543 kts 59°
2026-05-06 13:55 47.97996 -56.09478 30077 ft 544 kts 59°
2026-05-06 13:55 48.01874 -55.99778 30070 ft 543 kts 59°
2026-05-06 13:56 48.05744 -55.90068 30078 ft 543 kts 59°
2026-05-06 13:56 48.09581 -55.80406 30076 ft 544 kts 59°
2026-05-06 13:57 48.13437 -55.70658 30077 ft 544 kts 59°
2026-05-06 13:57 48.17290 -55.60886 30080 ft 545 kts 59°
2026-05-06 13:58 48.21136 -55.51093 30085 ft 546 kts 60°
2026-05-06 13:58 48.24981 -55.41267 30083 ft 546 kts 60°
2026-05-06 13:59 48.28829 -55.31397 30083 ft 547 kts 60°
2026-05-06 13:59 48.32640 -55.21586 30084 ft 547 kts 60°
2026-05-06 14:00 48.36476 -55.11673 30085 ft 548 kts 60°
2026-05-06 14:00 48.40305 -55.01745 30091 ft 548 kts 60°
2026-05-06 14:01 48.44128 -54.91789 30091 ft 549 kts 60°
2026-05-06 14:01 48.47922 -54.81877 30101 ft 550 kts 60°
2026-05-06 14:02 48.51734 -54.71880 30108 ft 550 kts 60°
2026-05-06 14:02 48.55547 -54.61841 30115 ft 551 kts 60°
2026-05-06 14:03 48.59348 -54.51792 30107 ft 551 kts 60°
2026-05-06 14:03 48.63146 -54.41718 30101 ft 551 kts 60°
2026-05-06 14:04 48.66931 -54.31637 30100 ft 551 kts 60°
2026-05-06 14:04 48.70685 -54.21602 30094 ft 551 kts 60°
2026-05-06 14:05 48.74455 -54.11488 30079 ft 552 kts 60°
2026-05-06 14:05 48.78223 -54.01336 30077 ft 552 kts 60°
2026-05-06 14:06 48.81981 -53.91173 30080 ft 551 kts 60°
2026-05-06 14:06 48.85720 -53.81019 30076 ft 552 kts 60°
2026-05-06 14:07 48.89460 -53.70827 30077 ft 552 kts 60°
2026-05-06 14:07 48.93196 -53.60606 30071 ft 552 kts 60°
2026-05-06 14:08 48.96894 -53.50445 30067 ft 553 kts 60°
2026-05-06 14:08 49.00615 -53.40185 30064 ft 554 kts 60°
2026-05-06 14:09 49.04337 -53.29882 30062 ft 555 kts 60°
2026-05-06 14:09 49.08046 -53.19571 30062 ft 554 kts 60°
2026-05-06 14:10 49.11746 -53.09245 30058 ft 554 kts 60°
2026-05-06 14:10 49.15435 -52.98912 30058 ft 554 kts 60°
2026-05-06 14:11 49.19093 -52.88618 30063 ft 555 kts 60°
2026-05-06 14:11 49.22774 -52.78225 30063 ft 554 kts 60°
2026-05-06 14:12 49.26432 -52.67852 30061 ft 554 kts 60°
2026-05-06 14:12 49.30085 -52.57449 30062 ft 554 kts 60°
2026-05-06 14:13 49.33731 -52.47029 30062 ft 554 kts 60°
2026-05-06 14:13 49.37338 -52.36677 30057 ft 553 kts 60°
2026-05-06 14:14 49.40952 -52.26261 30065 ft 553 kts 60°
2026-05-06 14:14 49.44558 -52.15827 30064 ft 553 kts 60°
2026-05-06 14:15 49.48156 -52.05375 30067 ft 552 kts 60°
2026-05-06 14:15 49.51394 -51.94671 30070 ft 553 kts 68°
2026-05-06 14:16 49.54257 -51.83670 30067 ft 554 kts 67°
2026-05-06 14:16 49.57100 -51.72660 30077 ft 553 kts 67°
2026-05-06 14:17 49.59932 -51.61664 30074 ft 552 kts 67°
2026-05-06 14:17 49.62754 -51.50657 30075 ft 552 kts 67°
2026-05-06 14:18 49.65565 -51.39627 30079 ft 551 kts 67°
2026-05-06 14:18 49.68341 -51.28690 30080 ft 550 kts 67°
2026-05-06 14:19 49.71125 -51.17674 30084 ft 550 kts 67°
2026-05-06 14:19 49.73897 -51.06641 30086 ft 550 kts 67°
2026-05-06 14:20 49.76654 -50.95612 30086 ft 549 kts 67°
2026-05-06 14:20 49.79397 -50.84596 30088 ft 548 kts 67°
2026-05-06 14:21 49.82127 -50.73572 30093 ft 548 kts 68°
2026-05-06 14:21 49.84843 -50.62544 30093 ft 548 kts 67°
2026-05-06 14:22 49.87547 -50.51516 30094 ft 546 kts 67°
2026-05-06 14:22 49.90217 -50.40576 30099 ft 545 kts 68°
2026-05-06 14:23 49.92891 -50.29558 30094 ft 545 kts 68°
2026-05-06 14:23 49.95555 -50.18526 30103 ft 544 kts 68°
2026-05-06 14:24 49.98199 -50.07530 30103 ft 543 kts 68°
2026-05-06 14:24 50.00560 -49.96368 30105 ft 545 kts 76°
2026-05-06 14:25 50.02194 -49.84944 30105 ft 546 kts 76°
2026-05-06 14:25 50.03841 -49.73412 30106 ft 545 kts 76°
2026-05-06 14:26 50.05484 -49.61896 30107 ft 544 kts 76°
2026-05-06 14:26 50.07117 -49.50371 30110 ft 545 kts 76°
2026-05-06 14:27 50.08737 -49.38834 30114 ft 545 kts 76°
2026-05-06 14:27 50.10347 -49.27284 30103 ft 545 kts 75°
2026-05-06 14:28 50.11945 -49.15736 30110 ft 545 kts 76°
2026-05-06 14:28 50.13523 -49.04240 30108 ft 546 kts 75°
2026-05-06 14:29 50.15097 -48.92672 30112 ft 545 kts 75°
2026-05-06 14:29 50.16664 -48.81084 30117 ft 546 kts 75°
2026-05-06 14:30 50.18219 -48.69477 30114 ft 547 kts 75°
2026-05-06 14:30 50.19764 -48.57848 30116 ft 547 kts 75°
2026-05-06 14:31 50.21302 -48.46191 30118 ft 547 kts 75°
2026-05-06 14:31 50.22824 -48.34541 30120 ft 548 kts 76°
2026-05-06 14:32 50.24340 -48.22855 30118 ft 549 kts 76°
2026-05-06 14:32 50.25841 -48.11182 30123 ft 548 kts 76°
2026-05-06 14:33 50.27322 -47.99565 30122 ft 549 kts 76°
2026-05-06 14:33 50.28802 -47.87850 30124 ft 549 kts 75°
2026-05-06 14:34 50.30272 -47.76129 30130 ft 549 kts 75°
2026-05-06 14:34 50.31729 -47.64402 30135 ft 549 kts 76°
2026-05-06 14:35 50.33176 -47.52662 30131 ft 550 kts 75°
2026-05-06 14:35 50.34611 -47.40906 30131 ft 549 kts 76°
2026-05-06 14:36 50.36033 -47.29145 30137 ft 549 kts 75°
2026-05-06 14:36 50.37206 -47.19372 30140 ft 549 kts 75°
2026-05-06 14:37 50.38835 -47.05682 30137 ft 550 kts 76°
2026-05-06 14:37 50.40222 -46.93903 30143 ft 549 kts 75°
2026-05-06 14:38 50.41373 -46.84052 30146 ft 548 kts 75°
2026-05-06 14:38 50.42726 -46.72370 30147 ft 549 kts 75°
2026-05-06 14:39 50.44078 -46.60584 30148 ft 548 kts 75°
2026-05-06 14:39 50.45414 -46.48824 30147 ft 547 kts 75°
2026-05-06 14:40 50.46741 -46.37046 30150 ft 548 kts 75°
2026-05-06 14:40 50.48055 -46.25264 30146 ft 547 kts 75°
2026-05-06 14:41 50.49354 -46.13492 30151 ft 547 kts 75°
2026-05-06 14:41 50.50642 -46.01725 30152 ft 547 kts 75°
2026-05-06 14:42 50.51912 -45.90010 30151 ft 547 kts 75°
2026-05-06 14:42 50.53175 -45.78219 30155 ft 547 kts 75°
2026-05-06 14:43 50.54426 -45.66434 30158 ft 546 kts 75°
2026-05-06 14:43 50.55667 -45.54635 30152 ft 547 kts 75°
2026-05-06 14:44 50.56896 -45.42826 30159 ft 547 kts 75°
2026-05-06 14:45 50.58710 -45.25160 30158 ft 547 kts 75°
2026-05-06 14:45 50.59910 -45.13325 30163 ft 547 kts 75°
2026-05-06 14:46 50.61096 -45.01510 30163 ft 547 kts 75°
2026-05-06 14:46 50.62271 -44.89671 30165 ft 547 kts 75°
2026-05-06 14:47 50.63432 -44.77845 30166 ft 546 kts 75°
2026-05-06 14:47 50.64574 -44.66097 30170 ft 546 kts 75°
2026-05-06 14:48 50.65661 -44.54785 30166 ft 546 kts 75°
2026-05-06 14:48 50.66786 -44.42949 30170 ft 546 kts 75°
2026-05-06 14:49 50.67900 -44.31115 30169 ft 546 kts 75°
2026-05-06 14:49 50.69000 -44.19273 30168 ft 546 kts 75°
2026-05-06 14:50 50.70090 -44.07413 30170 ft 546 kts 75°
2026-05-06 14:50 50.71042 -43.96953 30171 ft 546 kts 75°
2026-05-06 14:51 50.72015 -43.86132 30170 ft 546 kts 75°
2026-05-06 14:51 50.73065 -43.74319 30172 ft 547 kts 75°
2026-05-06 14:52 50.74112 -43.62421 30174 ft 547 kts 75°
2026-05-06 14:52 50.75146 -43.50513 30175 ft 547 kts 75°
2026-05-06 14:53 50.76168 -43.38592 30166 ft 547 kts 75°
2026-05-06 14:53 50.77178 -43.26686 30169 ft 546 kts 75°
2026-05-06 14:54 50.78173 -43.14784 30169 ft 547 kts 75°
2026-05-06 14:54 50.79158 -43.02862 30176 ft 546 kts 75°
2026-05-06 14:55 50.80124 -42.91038 30176 ft 546 kts 75°
2026-05-06 14:55 50.81083 -42.79126 30177 ft 546 kts 75°
2026-05-06 14:56 50.82030 -42.67206 30186 ft 546 kts 75°
2026-05-06 14:56 50.82966 -42.55282 30175 ft 546 kts 75°
2026-05-06 14:57 50.83888 -42.43358 30174 ft 546 kts 75°
2026-05-06 14:57 50.84793 -42.31495 30176 ft 546 kts 75°
2026-05-06 14:58 50.85693 -42.19551 30170 ft 547 kts 75°
2026-05-06 14:58 50.86581 -42.07585 30163 ft 547 kts 75°
2026-05-06 14:59 50.87458 -41.95602 30173 ft 548 kts 75°
2026-05-06 14:59 50.88318 -41.83682 30172 ft 549 kts 75°
2026-05-06 15:00 50.89172 -41.71652 30173 ft 549 kts 75°
2026-05-06 15:00 50.90016 -41.59607 30173 ft 550 kts 75°
2026-05-06 15:01 50.90849 -41.47553 30173 ft 551 kts 75°
2026-05-06 15:01 50.91609 -41.36362 30172 ft 550 kts 75°
2026-05-06 15:02 50.92415 -41.24319 30168 ft 550 kts 75°
2026-05-06 15:02 50.93211 -41.12251 30163 ft 551 kts 75°
2026-05-06 15:03 50.93993 -41.00178 30156 ft 550 kts 75°
2026-05-06 15:03 50.94764 -40.88102 30163 ft 550 kts 75°
2026-05-06 15:04 50.95522 -40.76022 30168 ft 550 kts 75°
2026-05-06 15:04 50.96267 -40.63927 30163 ft 550 kts 75°
2026-05-06 15:05 50.96995 -40.51934 30151 ft 549 kts 75°
2026-05-06 15:05 50.97715 -40.39859 30154 ft 550 kts 76°
2026-05-06 15:06 50.98424 -40.27727 30151 ft 551 kts 76°
2026-05-06 15:06 50.99121 -40.15611 30152 ft 551 kts 75°
2026-05-06 15:07 50.99831 -40.03488 30152 ft 550 kts 74°
2026-05-06 15:07 51.01199 -39.91795 30155 ft 539 kts 66°
2026-05-06 15:08 51.02870 -39.80125 30152 ft 541 kts 66°
2026-05-06 15:08 51.04540 -39.68468 30150 ft 541 kts 66°
2026-05-06 15:09 51.06200 -39.56786 30146 ft 542 kts 66°
2026-05-06 15:09 51.07849 -39.45088 30142 ft 543 kts 66°
2026-05-06 15:10 51.09490 -39.33352 30140 ft 543 kts 66°
2026-05-06 15:10 51.11118 -39.21614 30147 ft 543 kts 67°
2026-05-06 15:11 51.12726 -39.09927 30140 ft 544 kts 67°
2026-05-06 15:11 51.14334 -38.98148 30148 ft 544 kts 67°
2026-05-06 15:12 51.15929 -38.86364 30140 ft 544 kts 68°
2026-05-06 15:12 51.17516 -38.74559 30142 ft 545 kts 68°
2026-05-06 15:13 51.19090 -38.62739 30140 ft 545 kts 69°
2026-05-06 15:13 51.20653 -38.50906 30143 ft 545 kts 69°
2026-05-06 15:14 51.22203 -38.39079 30138 ft 545 kts 69°
2026-05-06 15:14 51.23729 -38.27330 30136 ft 544 kts 70°
2026-05-06 15:15 51.25258 -38.15471 30137 ft 549 kts 70°
2026-05-06 15:15 51.26795 -38.03436 30141 ft 557 kts 71°
2026-05-06 15:16 51.28339 -37.91233 30135 ft 564 kts 72°
2026-05-06 15:16 51.29889 -37.78877 30134 ft 570 kts 72°
2026-05-06 15:17 51.31439 -37.66417 30136 ft 571 kts 73°
2026-05-06 15:17 51.32964 -37.54039 30130 ft 564 kts 73°
2026-05-06 15:18 51.34465 -37.41739 30129 ft 563 kts 73°
2026-05-06 15:18 51.35949 -37.29475 30128 ft 566 kts 73°
2026-05-06 15:19 51.37434 -37.17075 30124 ft 566 kts 74°
2026-05-06 15:19 51.38902 -37.04706 30122 ft 565 kts 74°
2026-05-06 15:20 51.40355 -36.92352 30130 ft 564 kts 75°
2026-05-06 15:20 51.41794 -36.79985 30125 ft 563 kts 75°
2026-05-06 15:21 51.43207 -36.67743 30123 ft 562 kts 75°
2026-05-06 15:21 51.44615 -36.55407 30110 ft 562 kts 76°
2026-05-06 15:22 51.46008 -36.43086 30110 ft 562 kts 76°
2026-05-06 15:22 51.47388 -36.30770 30111 ft 561 kts 76°
2026-05-06 15:23 51.48753 -36.18450 30103 ft 560 kts 77°
2026-05-06 15:23 51.50103 -36.06148 30104 ft 559 kts 77°
2026-05-06 15:24 51.51438 -35.93863 30102 ft 558 kts 77°
2026-05-06 15:24 51.52749 -35.81660 30101 ft 557 kts 77°
2026-05-06 15:25 51.54056 -35.69389 30099 ft 557 kts 78°
2026-05-06 15:25 51.55348 -35.57122 30095 ft 556 kts 78°
2026-05-06 15:26 51.56626 -35.44845 30097 ft 555 kts 78°
2026-05-06 15:26 51.57889 -35.32609 30095 ft 555 kts 78°
2026-05-06 15:27 51.59129 -35.20457 30096 ft 554 kts 79°
2026-05-06 15:27 51.60361 -35.08246 30096 ft 553 kts 79°
2026-05-06 15:28 51.61582 -34.96009 30094 ft 553 kts 79°
2026-05-06 15:28 51.62789 -34.83794 30091 ft 553 kts 80°
2026-05-06 15:29 51.63780 -34.73650 30089 ft 552 kts 80°
2026-05-06 15:29 51.64963 -34.61432 30088 ft 551 kts 80°
2026-05-06 15:30 51.66130 -34.49227 30089 ft 551 kts 81°
2026-05-06 15:30 51.67283 -34.37041 30087 ft 550 kts 81°
2026-05-06 15:31 51.68423 -34.24851 30087 ft 550 kts 81°
2026-05-06 15:31 51.69549 -34.12662 30082 ft 549 kts 81°
2026-05-06 15:32 51.71205 -33.94480 30082 ft 548 kts 81°
2026-05-06 15:32 51.72295 -33.82323 30081 ft 548 kts 82°
2026-05-06 15:33 51.73374 -33.70157 30078 ft 547 kts 82°
2026-05-06 15:33 51.74440 -33.57996 30077 ft 547 kts 82°
2026-05-06 15:34 51.75492 -33.45828 30076 ft 547 kts 82°
2026-05-06 15:34 51.76531 -33.33663 30066 ft 547 kts 82°
2026-05-06 15:35 51.77560 -33.21479 30066 ft 548 kts 82°
2026-05-06 15:35 51.78576 -33.09273 30062 ft 548 kts 83°
2026-05-06 15:36 51.79574 -32.97135 30059 ft 548 kts 83°
2026-05-06 15:36 51.80567 -32.84916 30055 ft 548 kts 83°
2026-05-06 15:37 51.81545 -32.72691 30046 ft 549 kts 83°
2026-05-06 15:37 51.82512 -32.60447 30051 ft 549 kts 83°
2026-05-06 15:38 51.83469 -32.48187 30045 ft 549 kts 83°
2026-05-06 15:38 51.84411 -32.35924 30043 ft 549 kts 83°
2026-05-06 15:39 51.85340 -32.23653 30040 ft 549 kts 83°
2026-05-06 15:39 51.86252 -32.11462 30035 ft 550 kts 83°
2026-05-06 15:40 51.87157 -31.99163 30034 ft 550 kts 83°
2026-05-06 15:40 51.88050 -31.86867 30029 ft 550 kts 84°
2026-05-06 15:41 51.88930 -31.74558 30023 ft 550 kts 84°
2026-05-06 15:41 51.89797 -31.62259 30022 ft 549 kts 84°
2026-05-06 15:42 51.90650 -31.49960 30019 ft 549 kts 84°
2026-05-06 15:42 51.91484 -31.37745 30016 ft 549 kts 84°
2026-05-06 15:43 51.92311 -31.25452 30012 ft 548 kts 84°
2026-05-06 15:43 51.93124 -31.13177 30007 ft 547 kts 85°
2026-05-06 15:44 51.93921 -31.00930 30001 ft 546 kts 85°
2026-05-06 15:44 51.94706 -30.88687 29998 ft 544 kts 85°
2026-05-06 15:45 51.95474 -30.76482 29994 ft 543 kts 86°
2026-05-06 15:45 51.96228 -30.64307 29985 ft 542 kts 86°
2026-05-06 15:46 51.96964 -30.52233 29982 ft 541 kts 86°
2026-05-06 15:46 51.97691 -30.40095 29975 ft 540 kts 86°
2026-05-06 15:47 51.98403 -30.27976 29970 ft 539 kts 86°
2026-05-06 15:47 51.99102 -30.15882 29969 ft 537 kts 86°
2026-05-06 15:48 51.99811 -30.03821 29965 ft 536 kts 85°
2026-05-06 15:48 52.01179 -29.91914 29960 ft 537 kts 78°
2026-05-06 15:49 52.02856 -29.80195 29967 ft 536 kts 78°
2026-05-06 15:49 52.04543 -29.68399 29955 ft 536 kts 78°
2026-05-06 15:50 52.06218 -29.56584 29951 ft 536 kts 79°
2026-05-06 15:50 52.07880 -29.44766 29960 ft 536 kts 79°
2026-05-06 15:51 52.09518 -29.33028 29947 ft 536 kts 79°
2026-05-06 15:51 52.11155 -29.21209 29953 ft 535 kts 79°
2026-05-06 15:52 52.12777 -29.09386 29957 ft 535 kts 79°
2026-05-06 15:52 52.14390 -28.97549 29952 ft 536 kts 79°
2026-05-06 15:53 52.15996 -28.85673 29946 ft 537 kts 79°
2026-05-06 15:53 52.17592 -28.73756 29958 ft 539 kts 79°
2026-05-06 15:54 52.19180 -28.61821 29959 ft 539 kts 79°
2026-05-06 15:54 52.20757 -28.49851 29960 ft 540 kts 80°
2026-05-06 15:55 52.22324 -28.37864 29959 ft 541 kts 80°
2026-05-06 15:55 52.23883 -28.25839 29962 ft 542 kts 80°
2026-05-06 15:56 52.25420 -28.13874 29964 ft 542 kts 80°
2026-05-06 15:56 52.26957 -28.01807 29970 ft 543 kts 80°
2026-05-06 15:57 52.28488 -27.89690 29960 ft 545 kts 81°
2026-05-06 15:57 52.30010 -27.77535 29972 ft 546 kts 81°
2026-05-06 15:58 52.31518 -27.65374 29977 ft 546 kts 81°
2026-05-06 15:58 52.33007 -27.53272 29979 ft 547 kts 81°
2026-05-06 15:59 52.34498 -27.41033 29981 ft 549 kts 81°
2026-05-06 15:59 52.35978 -27.28775 29980 ft 550 kts 81°
2026-05-06 16:00 52.37449 -27.16477 29980 ft 551 kts 81°
2026-05-06 16:00 52.38909 -27.04154 29985 ft 552 kts 82°
2026-05-06 16:01 52.40363 -26.91771 29987 ft 554 kts 82°
2026-05-06 16:01 52.41809 -26.79340 29990 ft 555 kts 82°
2026-05-06 16:02 52.43240 -26.66906 29987 ft 555 kts 82°
2026-05-06 16:02 52.44659 -26.54457 29992 ft 555 kts 82°
2026-05-06 16:03 52.46049 -26.42149 29993 ft 547 kts 82°
2026-05-06 16:03 52.47422 -26.29867 30004 ft 550 kts 82°
2026-05-06 16:04 52.48800 -26.17418 30001 ft 558 kts 82°
2026-05-06 16:04 52.50179 -26.04834 29996 ft 561 kts 82°
2026-05-06 16:05 52.51540 -25.92280 30000 ft 554 kts 82°
2026-05-06 16:05 52.52876 -25.79830 30014 ft 553 kts 82°
2026-05-06 16:06 52.54202 -25.67349 30004 ft 555 kts 82°
2026-05-06 16:06 52.55516 -25.54838 30003 ft 556 kts 82°
2026-05-06 16:07 52.56817 -25.42321 30008 ft 555 kts 82°
2026-05-06 16:07 52.58104 -25.29802 30006 ft 554 kts 82°
2026-05-06 16:08 52.59375 -25.17318 30008 ft 551 kts 82°
2026-05-06 16:08 52.59976 -25.11362 30005 ft 521 kts 82°
2026-05-06 16:08 52.60558 -25.05555 30007 ft 510 kts 82°
2026-05-06 16:09 52.61705 -24.94040 30015 ft 512 kts 82°
2026-05-06 16:09 52.62858 -24.82345 30021 ft 522 kts 82°
2026-05-06 16:10 52.64011 -24.70538 30021 ft 521 kts 82°
2026-05-06 16:10 52.65142 -24.58811 30017 ft 516 kts 82°
2026-05-06 16:11 52.66257 -24.47132 30019 ft 516 kts 82°
2026-05-06 16:11 52.67355 -24.35506 30020 ft 517 kts 82°
2026-05-06 16:12 52.68449 -24.23804 30019 ft 515 kts 82°
2026-05-06 16:12 52.69171 -24.15991 30013 ft 514 kts 82°